Find Starlink 38194

NORAD ID: 100437 Int'l Des: 2026-193 Owner: SPXS Country: US Constellation: starlink operational

当前视图

正在加载3D地球...

About Starlink 38194

Starlink 38194 (NORAD 100437) is a starlink constellation satellite launched Aug 22, 2026 by SPXS of US. with a mass of 575.00 kg.

即将过境

Passes for default location (London). Set your location on the main map for personalized predictions.

高度历史

Loading altitude history...

两行轨道根数

1 A0437U 26193E 26263.94241529 -.00430862 00000-0 -92701-2 0 9996
2 A0437 70.0004 73.0900 0002976 294.6870 65.4003 15.46074770 5763
Epoch: Sep 20, 2026 • Age: 7 hours

当前状态

高度 441.3 km
远地点 / 近地点 N/A
速度 7.65 km/s
星下点 66.20°N, 49.99°E
发射日期 Aug 22, 2026
运行时间 29 days
类型 internet

技术详情

分类 Payload
质量 575.00 kg
干质量 530.00 kg
长度 0.30 m
跨度 29.00 m
形状 ? Box + pan
制造商 SPXS
平台类型 Starlink V2MO
阶段状态 In Orbit
所有者/国家 SPXS/US

Most Searched